Regional Weather Roundup
Issued by NWS Upton, NY

Home | Current Version | Previous Version | Text Only | Print | Product List | Glossary On
Versions: 1 2 3 4 5 6 7 8 9 10 11 12 13 14 15 16 17 18 19 20 21 22 23 24 25 26 27
000
ASUS41 KOKX 240505
RWROKX

Regional Weather Roundup
National Weather Service New York NY
100 AM EDT TUE APR 24 2018

Note: "FAIR" indicates few or no clouds below 12,000 feet with no
significant weather and/or obstructions to visibility.

NYZ071-072-176-178-NJZ106-104-240600-
New York City Metro Area

CITY           SKY/WX    TMP DP  RH WIND       PRES   REMARKS
Central Park   FAIR      50  39  66 NE3       30.44F
Bronx Bot Gard   N/A     46  39  76 E1        30.44R
Bronx Lehman C   N/A     50  41  71 SE2         N/A
LaGuardia Arpt MOCLDY    50  42  74 S5        30.42F
Queens College   N/A     48  43  81 S3          N/A
Kennedy Intl   MOCLDY    45  43  93 CALM      30.44S
Breezy Point     N/A     46 N/A N/A SE3         N/A
Brooklyn Coll    N/A     48  43  81 SE2         N/A
Staten Island    N/A     48  37  66 S2          N/A
Newark/Liberty MOCLDY    50  40  68 CALM      30.42F
Teterboro      FAIR      48  39  71 CALM      30.41F
$$

NYZ177-179-078>081-240600-
Long Island New York

CITY           SKY/WX    TMP DP  RH WIND       PRES   REMARKS
Jones Beach      N/A     46 N/A N/A SE2         N/A
Wantagh          N/A     43  41  93 E3          N/A
Hempstead        N/A     45  43  93 CALM      30.45S
Matinecock Pt    N/A     45 N/A N/A E3          N/A
Farmingdale    FAIR      41  38  89 CALM      30.43F
MacArthur/ISP  FAIR      41  38  89 E5        30.43F
Stony Brook      N/A     45  41  87 S3          N/A
Shirley        FAIR      38  36  92 CALM      30.45F
Mt Sinai Harb    N/A    N/A N/A N/A CALM        N/A
Westhampton    FAIR      30  24  78 CALM      30.46F
East Hampton   FAIR      31  29  92 CALM      30.45S
Southold         N/A     41  37  87 S3          N/A
Montauk          N/A     46  41  82 CALM      30.46F
$$

NYZ052-065-067-240600-
Hudson Valley

CITY           SKY/WX    TMP DP  RH WIND       PRES   REMARKS
White Plains   FAIR      43  37  79 CALM      30.41F
Larchmont Harb   N/A     45 N/A N/A NE2         N/A
Croton On Huds   N/A     45 N/A N/A CALM        N/A
Somers           N/A     43  34  70 E2          N/A
Brewster         N/A     39  32  75 SW1         N/A
Newburgh       CLEAR     45  32  61 CALM      30.41F
Montgomery     FAIR      41  31  67 CALM      30.39F
Otisville        N/A     41  34  75 NW1         N/A
Warwick          N/A     48  34  57 S2          N/A
Suffern          N/A     45  34  65 CALM        N/A
Poughkeepsie   FAIR      41  31  67 CALM      30.40F
Albany         MOCLDY    53  24  32 S14       30.36S
$$

NJZ001-105-106-008-010-013-015-019>022-104-240600-
New Jersey

CITY           SKY/WX    TMP DP  RH WIND       PRES   REMARKS
Newark/Liberty MOCLDY    50  40  68 CALM      30.42F
Teterboro      FAIR      48  39  71 CALM      30.41F
Caldwell       FAIR      44  38  79 CALM      30.42F
Somerville     FAIR      40  35  83 CALM      30.40S
Linden         FAIR      47  40  77 CALM      30.43S
Perth Amboy      N/A     48 N/A N/A CALM        N/A
Sussex         FAIR      39  32  76 CALM      30.41S
Andover          N/A     44  37  76 CALM      30.40S
Trenton        FAIR      46  31  55 S3        30.41S
Millville      FAIR      40  36  86 E3        30.40F
Atlantic City  FAIR      41  37  86 CALM      30.42S
Wrightstown    NOT AVBL
Toms River     NOT AVBL
Belmar         FAIR      44  42  93 S3        30.43S
$$

PAZ047>061-062-071-240600-
Eastern Pennsylvania

CITY           SKY/WX    TMP DP  RH WIND       PRES   REMARKS
Philadelphia   FAIR      48  31  51 E3        30.41F
Allentown      FAIR      54  22  28 SE3       30.39S
Scranton       FAIR      53  27  36 SE8       30.35F
$$

CTZ002-004>006-009-010-012-RIZ004-006-007-MAZ004-011-015-240600-
Southern New England

 In CT

CITY           SKY/WX    TMP DP  RH WIND       PRES   REMARKS
Bradley Intl   MOCLDY    44  29  55 S8        30.42F
Hartford       FAIR      44  32  62 S5        30.44S
Danbury        FAIR      38  31  76 CALM      30.43F
Wtrbury/Oxford FAIR      42  33  70 S3        30.43F
Norwalk Harbor   N/A     43 N/A N/A NE2         N/A
Bridgeport     FAIR      44  38  79 CALM      30.44F
Meriden        FAIR      39  33  79 CALM      30.45S
New Haven      FAIR      39  35  86 CALM      30.44F
Chester        FAIR      43  36  75 SW3       30.44S
Groton         FAIR      37  37 100 CALM      30.45F
Willimantic    FAIR      37  29  72 CALM      30.45S

 In RI

CITY           SKY/WX    TMP DP  RH WIND       PRES   REMARKS
Providence     FAIR      42  34  73 CALM      30.45F
Block Island     N/A     43  39  86 S8        30.45F
Westerly       FAIR      37  35  92 CALM      30.46F

In MA

CITY           SKY/WX    TMP DP  RH WIND       PRES   REMARKS
Boston         FAIR      47  23  38 SW13      30.43F
Worcester      FAIR      42  24  49 SW13      30.40F
Westfield      FAIR      43  25  49 S3        30.41F
Provincetown   FAIR      42  37  82 S10       30.46S
Nantucket      FAIR      37  37 100 SW6       30.47S WCI  32
$$

ANZ330-335-338-340-345-350-353-355-240600-
Coastal Marine Observations


STATION/POSITION TIME  SKY/WX   TEMP    WIND        PRES    VSBY  WAVE
                                AIR SEA DIR/SP/G                  HT/PER
                 (UTC)          (F)     (DEG/KT/KT) (MB)    (MI)  (FT/S)
NY Harb Entrance 0450            47 46  160/  6/  8 1030.2          1/14
20 S Fire Island 0450            47 45  140/  8/  8 1030.5          1/ 8
23 SSW Montauk P 0450            45 44  190/  6/  6 1031.6          1/15
15 E Barnegat Li 0430               46                N/A           1/13
Hudson Canyon    0450            49 46  120/  6/  6 1030.4          1/13
Kings Point      0436            47 49  200/  3/  4 1031.3
Execution Rocks  NOT AVBL
Western LI Sound NOT AVBL
Central LI Sound 0430            44     200/  2/  2   N/A           0
Robbins Reef     0448            49     170/  5/  5 1030.8
$$


>>>>>>>>>>>>>>>>>>>>>>>>>>>> KEY <<<<<<<<<<<<<<<<<<<<<<<<<<<
>                                                          <
>     SKY/WX - Sky Condition/Present Weather               <
>     TMP    - Temperature in Fahrenheit                   <
>     DP     - Dew Point in Fahrenheit                     <
>     RH     - Relative Humidity in Percent                <
>     WIND   - Direction (from) and Speed in MPH           <
>     PRES   - Mean Sea Level Pressure (inches of Hg)      <
>     WCI    - Wind Chill Index                            <
>     VSB    - Visibility in Miles                         <
>     HX     - Heat Index                                  <
>     TC     - Temperature in Celsius                      <
>     VRB    - Varibale Wind Direction                     <
>                                                          <
>>>>>>>>>>>>>>>>>>>>>>>>>>>> KEY <<<<<<<<<<<<<<<<<<<<<<<<<<<




USA.gov is the U.S. government's official web portal to all federal, state and local government web resources and services.